Regional Weather Roundup
Issued by NWS

Home | Current Version | Previous Version | Graphics & Text | Print | Product List | Glossary On
Versions: 1 2 3 4 5 6 7 8 9 10 11 12 13 14 15 16 17 18 19 20 21 22 23 24 25 26 27 28 29 30 31 32 33 34 35 36 37 38 39 40 41 42 43 44 45 46 47 48 49 50
000
ASUS43 KMPX 300901
RWRMN
WEATHER ROUNDUP FOR MINNESOTA
NATIONAL WEATHER SERVICE TWIN CITIES/CHANHASSEN MN
400 AM CDT TUE SEP 30 2014


NOTE: "FAIR" INDICATES FEW OR NO CLOUDS BELOW 12,000 FEET WITH NO
SIGNIFICANT WEATHER AND/OR OBSTRUCTIONS TO VISIBILITY. N/A MEANS
CURRENT SKY AND/OR WEATHER CONDITIONS ARE NOT AVAILABLE.

MNZ060>063-068>070-301000-
   Twin Cities Metro

CITY           SKY/WX    TMP DP  RH WIND       PRES   REMARKS
TWIN CITIES    CLOUDY    42  38  85 E12       30.10F
ST PAUL        CLOUDY    42  39  89 E10       30.13F
CRYSTAL        CLOUDY    45  39  79 E8        30.10S
BLAINE         CLOUDY    45  43  93 E10       30.11S
LAKEVILLE      CLOUDY    39  39 100 E12       30.09F
EDEN PRAIRIE   CLOUDY    43  40  89 E7        30.08F
SOUTH ST PAUL  CLOUDY    43  38  84 E7        30.11S
LAKE ELMO      CLOUDY    43  39  87 E8        30.12F
$$
MNZ001>005-007-008-013>017-022>024-027-028-301000-
   Northwest Minnesota

CITY           SKY/WX    TMP DP  RH WIND       PRES   REMARKS
BEMIDJI        CLOUDY    43  41  91 SE16      30.06F
HALLOCK        CLEAR     45  43  93 SE9       30.02F
ROSEAU         CLOUDY    43  37  81 SE9       30.07F
WARROAD        MOCLDY    45  39  81 SE8G16    30.08F
THIEF RVR FALL CLEAR     41  37  87 E8        30.03F
CROOKSTON      CLEAR     39  37  93 CALM      30.04S
FOSSTON        MOCLDY    41  39  93 SE8       30.04F
DETROIT LAKES  CLOUDY    43  41  93 SE17      30.05R
PARK RAPIDS    CLOUDY    41  39  93 SE14      30.07F
MAHNOMEN       FAIR      42  40  91 SE10      30.03F
$$
MNZ006-009>011-018-025>026-301000-
   North Central Minnesota

CITY           SKY/WX    TMP DP  RH WIND       PRES   REMARKS
BAUDETTE       CLOUDY    42  39  89 SE6       30.10F
FLAG ISLAND    CLOUDY    45  43  93 SE10G16   30.08F
INTL FALLS     CLOUDY    42  40  92 SE6       30.12F
WASKISH        CLOUDY    45  43  93 CALM      30.08F
BIG FORK       CLOUDY    43  39  87 SE7       30.12S
LONGVILLE      CLOUDY    43  39  87 E6        30.10S
GRAND RAPIDS   CLOUDY    41  37  87 SE5       30.11F
CRANE LAKE     CLOUDY    41  37  87 CALM      30.17S
ORR            CLOUDY    43  37  81 CALM      30.12S
COOK           CLOUDY    41  37  87 SE3       30.15S
WALKER         CLOUDY    42  39  90 SE7       30.09F
$$
MNZ012-019>021-037-301000-
   Northeast Minnesota

CITY           SKY/WX    TMP DP  RH WIND       PRES   REMARKS
DULUTH         CLOUDY    42  38  85 E13       30.14F
ELY            CLOUDY    41  37  87 CALM      30.15S
HIBBING        CLOUDY    42  39  89 SE8       30.14F
EVELETH        CLOUDY    43  41  93 SE6       30.15F
DULUTH HARBOR  CLOUDY    46  41  81 E7        30.17F
TWO HARBORS    CLOUDY    43  36  75 E3        30.15S
SILVER BAY     MOCLDY    39  39 100 NE3       30.15S
GRAND MARAIS     N/A     43  36  76 VRB3      30.18F
G MARAIS ARPRT CLOUDY    36  30  80 NE6       30.16S
$$
MNZ029>031-032-039>041-046>048-054>057-064-301000-
   West Central Minnesota

CITY           SKY/WX    TMP DP  RH WIND       PRES   REMARKS
FERGUS FALLS   CLOUDY    43  39  87 SE15      30.04F
WHEATON        MOCLDY    41  39  93 E13       30.03S
MORRIS         CLEAR     45  43  93 E13       30.01F
ALEXANDRIA     CLOUDY    42  40  92 E15       30.06F
ELBOW LAKE     CLOUDY    43  42  95 SE10G17   30.03F
WADENA         CLOUDY    41  39  93 E12G18    30.07S
GLENWOOD       CLOUDY    43  41  93 E9        30.06F
APPLETON       CLEAR     45  43  93 E10       30.02F
BENSON         CLEAR     43  41  93 SE10      30.03F
ORTONVILLE     PTCLDY    45  41  87 SE12G18   30.00F
MADISON        CLEAR     48  46  93 E9        30.01F
WILLMAR        CLOUDY    45  41  87 E12G17    30.06F
$$
MNZ033>034-036-042>043-049>051-058-059-301000-
   Central Minnesota

CITY           SKY/WX    TMP DP  RH WIND       PRES   REMARKS
ST CLOUD       CLOUDY    43  39  86 E7        30.10F
SAUK CENTRE    CLOUDY    41  39  95 E13       30.08F
PAYNESVILLE    CLOUDY    40  39  96 NE12      30.08F
AITKIN         CLOUDY    43  37  81 E5        30.11S
PINE RIVER     CLOUDY    41  37  87 SE12      30.13F
BRAINERD       CLOUDY    41  38  89 E6        30.11F
STAPLES        CLOUDY    43  39  87 SE6       30.09S
LONG PRAIRIE     N/A     39  37  93 E7        30.09S
LITTLE FALLS   CLOUDY    39  36  87 E10       30.10F
LITCHFIELD     CLOUDY    43  43 100 E13       30.08F
BUFFALO        CLOUDY    43  39  86 E7        30.11S
MAPLE LAKE     CLOUDY    43  41  94 E7        30.10F
$$
MNZ037-044-045-052-053-301000-
   East Central Minnesota

CITY           SKY/WX    TMP DP  RH WIND       PRES   REMARKS
PRINCETON      CLOUDY    43  39  87 NE8       30.11F
MORA           CLOUDY    41  36  81 E6        30.14S
CAMBRIDGE      CLOUDY    45  36  70 E9        30.10F
RUSH CITY      LGT RAIN  42  40  91 E3        30.13S
MOOSE LAKE     CLOUDY    41  37  87 E5        30.12F
HINCKLEY       CLOUDY    43  39  87 NE6       30.13S
CLOQUET        CLOUDY    41  37  87 E8        30.14S
MCGREGOR       CLOUDY    41  37  87 E8        30.13F
$$
MNZ071>073-080-081-089-090-097-098-301000-
   Southwest Minnesota

CITY           SKY/WX    TMP DP  RH WIND       PRES   REMARKS
MONTEVIDEO     PTCLDY    43  43 100 SE13      30.03F
GRANITE FALLS  CLEAR     44  42  93 E9        30.04F
CANBY          CLOUDY    47  45  94 E12       30.01F
MARSHALL       CLOUDY    46  43  87 E12       29.99F
REDWOOD FALLS  PTCLDY    45  43  93 E10       30.04F
OLIVIA         CLEAR     43  39  87 E8        30.04F
PIPESTONE      PTCLDY    50  46  87 SE12      29.95F
WINDOM         CLEAR     46  45  93 E9        30.01F
WORTHINGTON    PTCLDY    48  46  93 E9        30.00F
JACKSON        MOCLDY    48  45  87 E8        30.01F
TRACY          MOCLDY    47  46  95 E8        30.01F
SLAYTON        CLEAR     48  47  95 E8        29.99F
$$
MNZ065>067-074>077-082>085-091>093-301000-
   South Central Minnesota

CITY           SKY/WX    TMP DP  RH WIND       PRES   REMARKS
MANKATO        CLEAR     45  37  76 E8        30.06F
NEW ULM        CLEAR     45  45 100 E9        30.05F
ST JAMES       CLEAR     46  45  93 E8        30.04F
FAIRMONT       CLEAR     46  43  87 E6        30.02F
GLENCOE        CLEAR     42  38  87 E6        30.08S
FARIBAULT      PTCLDY    43  37  81 NE6       30.08S
OWATONNA       CLEAR     41  39  93 E6        30.07S
WASECA         CLEAR     41  36  81 E7        30.08F
ALBERT LEA     CLEAR     45  45 100 E6        30.06F
$$
MNZ078>079-086>088-094>096-301000-
   Southeast Minnesota

CITY           SKY/WX    TMP DP  RH WIND       PRES   REMARKS
ROCHESTER      CLOUDY    44  42  93 E8        30.08F
RED WING       CLOUDY    45  39  81 E6        30.10F
STANTON        CLOUDY    43  40  87 E12       30.08F
DODGE CENTER   CLOUDY    43  43 100 E13G18    30.07S
WINONA         CLOUDY    43  41  93 NE7       30.12S
AUSTIN         CLOUDY    45  43  93 E5        30.06F
PRESTON        CLOUDY    43  41  93 E12       30.08S
$$
ABBREVIATIONS USED IN REMARKS
   TC - TEMPERATURES IN CELSIUS
  WCI - WIND CHILL INDEX
   HX - HEAT INDEX
  VSB - VISIBILITY
$$



USA.gov is the U.S. government's official web portal to all federal, state and local government web resources and services.